Location: Port Dover
(42.7865°N, 80.2033°W)
Time: 21:30:34
(UTC-04:00)

ISS - Visible Passes

Search period start: 23 October 2019 00:00
Search period end: 02 November 2019 00:00
Orbit: 411 x 421 km, 51.6° (Epoch: 24 October)

Date Brightness Start Highest point End Pass type
(mag) Time Alt. Az. Time Alt. Az. Time Alt. Az.
24 Oct -2.5 06:59:27 10° SSW 07:02:39 42° SE 07:05:51 10° ENE visible
25 Oct -1.6 06:11:23 10° SSW 06:14:10 25° SE 06:16:59 10° E visible
26 Oct -1.0 05:25:35 15° SE 05:25:44 15° SE 05:27:44 10° E visible
26 Oct -3.8 06:58:44 10° WSW 07:02:06 73° NNW 07:05:28 10° NE visible
27 Oct -3.5 06:12:31 41° SSW 06:13:30 67° SE 06:16:51 10° ENE visible
28 Oct -1.5 05:26:20 25° E 05:26:20 25° E 05:28:06 10° ENE visible
28 Oct -2.9 06:59:15 14° W 07:01:42 34° NNW 07:04:49 10° NE visible
29 Oct -3.5 06:12:55 50° NNW 06:12:58 50° NNW 06:16:16 10° NE visible
30 Oct -1.2 05:26:29 20° NE 05:26:29 20° NE 05:27:40 10° NE visible
30 Oct -2.1 06:59:23 14° WNW 07:01:25 22° NNW 07:04:08 10° NE visible
31 Oct -2.4 06:12:51 27° N 06:12:51 27° N 06:15:32 10° NE visible
01 Nov -0.9 05:26:16 15° NE 05:26:16 15° NE 05:26:56 10° NE visible
01 Nov -1.8 06:59:09 12° NW 07:01:11 18° N 07:03:37 10° NE visible
